GEFSCGP_850_meantemp_024.txt.gz
Temperature
17 14 14 15 16 17 19 19 19 19 20 21 21 20 20 22 21 21 21 21 22 22 25 24 23 23 22 22 22 21 21 21 20 20 19 18 18 17 17 17 17 16 16 16
15 15 16 17 17 18 18 19 19 19 20 21 21 20 20 20 21 22 22 22 22 22 23 22 23 22 22 22 22 21 21 20 20 20 19 18 18 17 17 17 16 16 16 15
16 17 17 17 18 18 18 18 19 19 18 19 20 19 19 20 21 23 23 23 23 23 23 23 23 22 22 22 22 21 21 20 20 19 19 18 17 17 16 16 15 15 15 14
16 17 18 18 18 18 18 18 19 19 19 17 19 18 19 19 18 19 21 22 22 23 23 23 23 22 22 22 21 20 20 19 19 19 18 18 17 16 15 15 14 14 14 14
17 17 18 18 18 18 18 19 19 19 18 17 17 17 17 17 19 19 18 19 20 22 23 23 22 21 21 20 20 19 19 18 18 18 18 17 17 16 15 14 13 13 13 13
18 18 18 19 19 19 19 19 17 14 15 16 17 16 17 16 17 17 17 16 17 19 20 20 19 19 19 18 18 18 17 17 16 16 16 16 15 15 14 13 13 12 12 12
19 19 19 20 20 20 19 17 15 16 15 15 17 17 16 17 17 16 15 15 15 16 17 17 17 17 17 16 16 16 16 16 16 15 15 15 14 14 13 13 12 12 11 11
17 17 19 19 19 18 17 16 16 16 16 16 17 17 16 17 16 16 15 15 15 15 15 15 15 15 15 15 15 15 15 15 15 15 15 14 13 13 12 11 11 10 10 9
16 17 19 19 19 19 17 16 17 15 16 16 16 16 16 16 16 16 15 14 14 14 14 14 14 14 15 15 15 15 15 15 15 15 14 13 12 12 11 10 10 9 9 8
17 17 19 20 20 19 18 16 13 14 15 16 17 16 15 16 16 15 15 14 14 14 14 14 14 14 14 14 14 14 14 14 14 13 12 12 11 11 10 9 8 8 7 7
16 17 18 19 19 19 18 17 15 13 14 15 16 15 15 15 15 15 14 13 13 13 13 13 13 13 14 13 13 13 13 13 12 12 11 11 10 9 9 8 8 7 7 7
15 15 16 18 19 18 18 17 14 16 15 14 15 14 14 14 14 14 13 12 12 12 12 12 13 13 13 13 12 12 12 11 11 10 10 9 9 8 8 7 7 6 6 6
15 14 16 17 17 17 18 17 15 13 13 13 14 14 14 14 14 13 12 12 12 12 12 12 12 12 12 12 11 11 10 10 10 9 9 8 8 7 7 6 6 6 5 5
14 13 14 15 15 16 17 17 17 15 14 14 15 14 14 14 13 12 11 11 11 11 11 11 11 11 11 10 10 9 9 9 8 8 8 7 7 6 6 6 5 5 5 5
13 14 14 15 16 16 15 15 16 16 15 15 14 14 13 13 13 12 11 11 10 10 10 10 10 10 9 9 9 8 8 8 7 7 7 6 6 5 5 5 5 5 4 4
11 13 14 15 15 15 15 14 15 14 14 14 14 13 12 12 12 11 11 11 10 10 9 9 9 9 9 8 8 8 7 7 7 6 6 5 5 5 5 4 4 4 4 4
10 12 12 13 14 14 13 13 13 13 12 13 13 12 11 11 11 10 10 10 10 10 9 9 9 8 8 8 7 7 7 6 6 5 5 5 5 4 4 4 4 3 3 3
10 11 10 11 13 12 13 13 13 12 11 11 11 10 10 9 8 9 10 10 10 9 9 9 8 8 7 7 6 6 6 5 5 5 4 4 4 4 4 3 3 3 2 2
9 10 10 10 12 12 13 13 12 12 11 11 10 9 8 8 9 8 9 9 9 9 9 8 7 7 6 6 5 5 5 5 4 4 4 4 4 4 3 3 3 2 2 1
8 8 9 10 11 11 12 13 13 12 11 11 10 9 8 9 9 8 8 8 8 8 7 7 6 6 5 5 4 4 4 4 4 4 4 4 3 3 3 2 2 1 1 1
8 8 8 9 10 11 11 11 12 11 11 11 10 10 9 8 8 7 7 7 7 7 6 6 5 5 4 4 4 4 4 4 4 4 4 3 3 3 2 2 1 1 0 0
8 8 8 8 9 10 10 11 10 10 10 11 11 10 10 8 7 6 6 6 6 5 5 5 4 4 4 4 4 4 4 4 4 4 4 3 3 2 2 1 1 1 0 -0
7 7 7 8 8 9 9 9 10 10 11 11 11 11 10 8 6 5 5 5 5 5 4 4 4 4 4 4 4 4 4 4 4 4 3 3 2 2 2 1 1 0 0 -0
7 7 7 8 8 9 9 10 10 10 11 11 11 11 10 8 6 5 5 5 4 4 4 4 4 4 4 4 4 4 4 4 4 4 3 3 2 2 1 1 1 0 -0 -1
7 7 7 7 8 9 9 9 9 10 10 10 10 10 9 8 6 5 5 4 4 4 4 4 4 4 4 4 4 4 4 4 4 3 3 2 2 2 2 1 1 0 -0 -1
5 6 6 6 7 6 8 8 8 9 9 9 9 8 7 7 6 5 5 5 5 5 5 5 5 4 4 4 4 4 4 3 3 3 3 2 2 2 2 1 1 0 -0 -0

GEFSCGP_850_meantemp_030.txt.gz
Temperature
21 22 22 23 24 25 25 26 26 27 27 27 28 28 29 29 29 30 29 29 28 28 27 26 24 23 22 21 20 20 19 19 19 18 18 17 16 16 16 16 16 16 15 15
21 22 24 24 24 24 24 24 25 26 26 26 27 28 29 29 29 28 28 27 27 27 26 26 25 23 22 21 20 19 19 19 19 18 18 17 16 16 16 16 15 15 15 14
22 24 24 23 22 22 23 24 25 25 26 26 26 27 28 29 28 26 26 25 25 25 25 25 24 23 22 21 20 19 18 18 18 17 17 17 16 16 15 15 15 15 14 14
23 24 23 22 23 23 23 24 25 25 25 26 26 27 28 28 28 27 25 24 23 23 23 23 23 23 22 21 20 19 18 18 17 17 17 16 16 15 15 15 15 14 13 13
22 23 23 23 23 24 24 25 25 24 25 25 26 25 28 27 27 26 24 21 20 20 20 20 20 21 20 20 19 18 18 17 17 17 16 16 15 15 15 14 14 13 13 12
24 24 24 24 24 24 25 24 24 24 25 24 25 26 27 27 25 24 22 19 17 17 17 17 17 18 18 18 18 17 17 16 16 16 15 15 15 14 14 14 13 12 12 12
22 23 24 24 24 24 24 23 23 23 24 24 26 25 26 23 22 20 19 17 15 15 16 16 16 16 16 16 16 16 16 15 15 15 15 14 14 13 13 12 12 12 11 11
22 22 24 24 24 24 23 24 23 23 24 25 25 25 25 22 19 17 16 15 14 14 14 14 14 14 15 15 15 15 15 14 14 14 14 13 13 12 12 11 11 11 10 9
23 23 24 25 25 25 24 24 25 24 24 25 26 25 23 21 19 17 16 15 14 13 13 13 13 14 14 14 14 14 14 14 13 13 13 12 12 12 11 11 10 10 9 8
23 22 24 24 25 25 25 25 24 23 23 23 25 25 25 21 19 17 16 14 13 13 13 13 13 13 13 13 13 13 13 13 12 12 12 11 11 11 10 10 9 8 8 8
22 22 23 23 23 24 24 24 24 24 24 24 24 25 24 22 20 17 15 13 12 12 12 12 12 12 12 12 12 12 12 12 11 11 11 10 10 9 9 8 8 7 7 7
20 21 22 23 24 24 24 24 24 23 23 24 24 23 21 21 19 16 14 12 11 11 11 11 11 11 11 11 11 11 11 11 10 10 10 10 9 8 8 7 7 7 6 6
19 20 21 21 22 23 23 23 23 23 23 23 23 22 19 18 16 14 13 11 11 11 11 11 11 10 10 10 10 10 10 9 9 9 9 8 8 7 7 7 6 6 5 5
18 20 21 21 22 22 22 22 23 23 23 23 23 21 19 17 15 13 12 11 10 10 10 10 10 9 9 9 9 9 9 9 8 8 8 7 7 7 6 6 5 5 5 5
19 20 20 20 21 21 21 21 22 22 22 23 22 21 19 17 16 13 12 11 10 10 10 9 9 9 9 9 8 8 8 8 7 7 7 6 6 6 5 5 5 5 4 4
18 19 19 19 20 20 20 20 20 20 21 21 21 20 19 16 15 13 12 11 11 10 9 9 8 8 8 8 8 7 7 7 7 6 6 5 5 5 5 4 4 4 4 3
18 18 18 19 19 19 19 19 19 19 19 19 19 18 17 15 13 12 11 11 10 9 9 8 8 8 8 7 7 7 6 6 6 5 5 5 4 4 4 4 3 3 3 3
17 17 18 19 18 17 17 18 18 18 17 17 16 15 14 11 9 9 10 10 9 9 8 8 8 7 7 7 6 6 6 5 5 5 4 4 4 4 3 3 3 2 2 2
16 17 17 18 18 18 17 16 16 17 16 15 14 13 11 10 10 8 8 8 8 8 8 7 7 7 6 6 6 5 5 5 4 4 4 4 3 3 3 3 2 2 2 1
17 17 17 17 16 16 15 16 15 16 15 14 14 13 12 12 13 9 7 7 7 7 7 6 6 6 5 5 5 5 4 4 4 4 4 3 3 3 3 2 2 2 1 1
16 16 16 16 15 15 14 15 16 15 13 13 13 13 12 11 10 7 6 6 6 6 6 5 5 5 5 5 4 4 4 4 4 4 3 3 3 3 2 2 2 1 1 1
15 15 15 15 15 13 13 15 14 12 12 12 12 11 9 7 6 6 6 6 5 5 5 5 5 4 4 4 4 4 4 4 4 4 3 3 3 3 2 2 1 1 1 1
15 14 15 14 14 13 12 12 11 11 11 11 11 10 8 7 6 6 5 5 5 5 4 4 4 4 4 4 4 4 4 4 4 3 3 3 3 2 2 2 2 2 1 1
15 14 14 14 14 13 12 11 11 11 11 11 10 9 8 7 6 5 5 5 4 4 4 4 5 4 4 4 4 4 4 4 4 3 3 3 3 2 2 2 2 2 2 1
14 14 14 14 14 13 12 11 10 10 10 10 9 9 8 6 5 5 5 5 4 4 5 5 5 5 5 4 4 4 4 4 4 3 3 3 3 3 2 2 2 2 1 1
14 14 14 14 12 12 11 10 9 9 9 9 8 8 7 6 5 5 5 5 5 5 5 5 5 5 5 5 4 4 4 4 4 4 3 4 4 3 3 3 2 2 1 1

GEFSCGP_850_meantemp_036.txt.gz
Temperature
23 23 23 24 26 26 27 28 28 29 31 30 30 30 31 32 32 32 32 31 31 30 30 29 28 27 26 25 24 22 21 20 20 19 18 18 18 18 18 18 18 18 18 17
23 23 24 26 27 26 26 27 28 30 31 30 30 30 31 32 32 32 31 31 30 29 29 29 28 27 26 24 23 22 21 20 19 19 18 18 18 18 18 18 18 17 17 16
23 24 25 25 26 26 26 26 28 29 30 30 29 28 30 31 31 31 30 30 29 28 27 27 27 27 25 24 23 22 21 20 19 18 18 18 17 17 17 17 17 16 16 15
24 25 25 25 25 26 25 27 27 28 28 28 28 26 28 30 30 30 29 28 26 25 25 24 24 24 24 24 23 22 21 20 19 18 18 18 18 17 16 16 15 15 15 14
24 25 25 25 26 26 26 27 27 27 27 27 28 27 28 30 29 29 27 25 23 22 21 20 20 21 22 22 22 21 20 19 18 18 17 17 17 16 16 15 15 14 14 13
25 26 26 26 26 27 27 27 27 27 26 25 26 26 27 29 29 27 23 20 19 18 18 18 18 19 19 20 20 20 19 18 18 17 17 16 16 15 15 14 14 13 13 12
24 25 26 27 26 26 26 25 24 24 24 24 27 26 27 25 24 23 20 17 16 16 16 16 16 17 17 17 18 18 18 17 16 16 16 15 15 14 14 14 13 12 11 11
23 23 25 26 26 25 25 25 24 23 24 26 27 27 26 23 21 19 17 16 15 14 14 14 15 15 15 15 16 16 16 16 15 15 15 14 14 13 13 12 12 11 11 11
23 24 26 26 26 26 25 25 26 25 25 25 27 27 23 22 20 19 17 15 13 13 13 13 14 14 14 14 14 15 15 14 14 14 14 13 13 12 12 11 11 11 10 10
24 23 25 26 27 26 26 26 25 24 23 24 26 26 24 22 20 18 16 14 13 12 12 13 13 13 13 13 13 13 13 13 13 13 12 12 12 11 11 10 10 10 9 9
24 23 24 25 25 25 25 25 25 25 25 24 24 24 25 22 20 18 15 13 12 12 12 12 12 12 12 12 12 12 12 12 12 12 11 11 11 10 10 10 9 9 8 8
24 23 22 24 26 26 26 25 25 24 24 25 24 23 24 21 19 16 14 12 11 11 11 11 11 12 12 12 11 11 11 11 11 11 11 10 10 10 9 9 8 8 7 7
21 22 21 21 23 24 24 25 24 24 24 24 23 22 21 19 17 15 13 11 11 11 11 11 11 11 11 11 11 11 11 10 10 10 10 9 9 8 8 8 7 7 7 6
20 21 20 18 18 19 21 22 22 23 22 23 23 21 19 17 15 14 12 11 11 10 10 10 10 10 10 10 10 10 10 9 9 9 8 8 8 7 7 7 6 6 6 6
21 21 21 21 21 20 20 20 20 21 21 21 20 19 18 16 14 13 12 11 11 10 10 10 10 10 10 10 9 9 9 9 8 8 7 7 7 7 6 6 6 6 6 5
21 20 21 21 21 21 20 20 20 20 20 20 19 16 15 14 13 12 11 11 10 10 9 9 9 9 9 9 9 8 8 8 8 7 7 7 6 6 6 6 5 5 5 5
20 20 19 20 21 21 19 19 19 19 19 19 17 15 14 12 12 11 11 10 10 9 9 9 9 8 8 8 8 8 7 7 7 7 6 6 6 6 5 5 5 4 4 4
19 19 19 19 20 18 17 19 19 18 17 17 15 14 12 10 9 9 10 9 9 8 8 8 8 8 8 7 7 7 7 7 6 6 6 5 5 5 5 4 4 4 3 3
20 19 19 19 18 17 16 17 18 17 16 15 14 13 11 10 10 8 8 9 8 8 8 8 8 7 7 7 6 6 6 6 6 5 5 5 5 5 4 4 4 3 3 3
20 20 19 18 17 15 15 17 18 18 14 14 14 13 12 13 11 8 8 8 8 8 7 7 7 7 6 6 6 6 6 6 5 5 5 5 4 4 4 4 3 3 3 3
19 19 18 18 17 15 16 18 18 15 13 13 13 12 12 11 10 8 7 7 7 7 7 7 6 6 6 6 6 6 5 5 5 5 5 4 4 4 4 3 3 3 3 3
18 18 17 17 15 13 16 16 15 13 13 12 12 11 10 8 7 7 7 7 6 6 6 6 6 6 6 6 5 5 5 5 5 5 4 4 4 4 4 3 3 3 3 3
18 17 17 16 15 14 14 14 13 13 13 12 11 10 9 8 7 7 6 6 6 6 6 6 6 6 5 5 5 5 5 5 5 4 4 4 4 4 4 3 3 3 3 3
18 18 17 16 15 15 14 13 13 13 12 12 11 10 9 8 7 7 6 6 6 6 6 6 6 6 5 5 5 5 5 5 5 4 4 4 4 4 4 3 3 3 3 3
18 18 17 16 15 14 13 13 12 12 11 11 10 10 9 8 7 7 6 6 6 6 6 6 6 6 6 5 5 5 5 5 5 5 4 4 4 4 4 4 3 3 3 3
18 16 16 14 14 14 12 12 11 11 11 10 10 9 8 8 7 7 6 6 6 6 6 6 6 6 6 6 6 5 5 5 5 5 5 5 5 4 5 4 4 3 3 2

GEFSCGP_850_meantemp_042.txt.gz
Temperature
20 17 16 17 18 19 20 20 20 21 22 23 22 23 24 25 25 24 24 23 23 23 24 24 24 24 24 23 22 22 22 21 21 20 20 19 19 19 18 18 18 18 17 17
17 17 18 19 20 20 20 20 20 21 22 23 22 22 23 23 23 23 23 22 22 22 23 24 24 23 23 23 22 22 22 21 21 20 20 20 19 19 18 18 17 17 17 17
16 17 19 20 20 20 20 20 20 21 22 22 22 22 22 22 22 21 21 20 20 21 21 22 23 23 23 23 22 22 21 21 21 20 20 19 18 18 17 17 17 16 16 16
17 18 20 20 20 20 19 21 22 22 21 19 21 20 21 21 20 19 17 18 18 19 20 20 21 22 22 22 22 21 21 21 20 19 19 19 18 17 17 16 16 15 15 15
18 19 19 19 20 21 20 22 22 22 21 20 20 20 19 20 19 17 16 16 16 17 17 18 19 20 21 21 21 21 20 20 19 19 19 18 17 17 16 15 15 15 14 14
18 20 20 20 22 22 22 22 21 19 17 19 20 21 19 18 18 17 15 15 15 15 16 16 17 18 19 20 20 20 19 19 18 18 18 17 17 16 15 14 14 14 14 13
19 20 21 21 21 22 21 18 18 18 17 18 20 20 18 17 17 16 15 14 14 14 15 15 16 17 17 18 18 18 18 17 17 17 16 16 16 15 15 14 14 13 13 12
18 18 20 22 21 20 20 18 17 18 18 18 20 19 17 16 15 14 14 13 13 13 14 14 15 15 16 16 17 17 16 16 16 16 15 15 15 14 14 13 13 12 12 11
18 18 21 22 22 21 21 19 18 17 19 19 18 17 16 16 15 14 13 13 13 13 13 13 14 14 14 15 15 15 15 15 15 15 14 14 13 13 13 12 12 11 11 10
19 19 20 21 22 21 21 20 17 17 18 18 19 18 17 16 15 14 13 12 12 12 12 12 13 13 13 13 14 14 14 14 14 13 13 13 12 12 11 11 10 10 9 9
18 17 18 19 19 19 20 19 18 16 16 17 18 17 16 15 14 13 12 12 12 12 12 12 12 12 12 12 12 13 13 12 12 12 12 11 11 10 10 9 9 9 8 8
16 16 16 18 18 19 18 18 16 16 17 17 16 15 15 14 13 12 12 11 11 11 11 11 11 11 11 11 11 11 11 11 11 11 10 10 10 9 9 8 8 8 7 7
17 15 15 16 16 17 17 17 16 15 15 15 15 15 14 13 12 12 11 11 11 11 11 11 11 11 11 10 10 10 10 10 10 10 9 9 8 8 8 7 7 7 7 6
16 14 15 15 15 16 16 17 16 15 14 14 15 15 13 13 12 11 10 10 10 10 10 10 10 10 10 10 9 9 9 9 9 9 8 8 8 7 7 7 6 6 6 6
14 15 16 16 17 16 16 16 16 15 15 14 14 14 13 12 11 11 10 10 10 10 10 9 9 9 9 9 9 9 8 8 8 8 8 7 7 6 6 6 6 6 5 5
13 14 15 15 16 16 15 15 15 15 15 14 14 13 12 11 11 10 10 10 9 9 9 9 9 9 9 8 8 8 8 8 8 7 7 7 6 6 6 5 5 5 5 5
13 13 13 14 15 15 13 13 14 14 14 14 13 12 11 11 10 10 9 9 9 8 8 8 8 8 8 8 8 8 7 7 7 7 6 6 6 5 5 5 5 4 4 4
14 13 11 12 13 13 13 14 14 13 12 12 11 11 10 9 9 9 9 9 8 8 8 8 8 8 7 7 7 7 7 6 6 6 6 5 5 5 5 4 4 4 3 3
13 13 12 11 12 12 14 14 14 13 11 11 10 10 9 8 8 8 8 8 8 8 8 7 7 7 7 7 7 6 6 6 6 5 5 5 5 4 4 4 4 3 3 3
14 12 12 12 12 12 12 14 14 12 11 11 10 9 9 9 8 7 7 7 7 7 7 7 7 7 6 6 6 6 6 5 5 5 5 4 4 4 4 4 3 3 3 3
13 12 12 11 11 11 13 13 13 12 10 10 10 9 9 9 8 7 7 7 7 7 6 6 6 6 6 6 6 6 5 5 5 5 4 4 4 4 4 3 3 3 3 3
12 11 11 10 10 11 12 12 11 10 11 10 10 10 9 8 7 7 7 6 6 6 6 6 6 6 6 5 5 5 5 5 4 4 4 4 4 4 4 3 3 3 3 3
12 11 10 10 10 11 12 12 12 12 11 10 10 9 9 7 7 7 6 6 6 6 6 6 6 6 5 5 5 5 5 4 4 4 4 4 4 4 4 4 3 3 3 3
13 12 10 9 10 11 11 12 11 11 11 10 10 9 8 7 7 6 6 6 6 6 6 6 5 5 5 5 5 5 5 4 4 4 4 4 4 4 4 4 3 3 3 3
13 12 10 9 10 10 11 11 11 11 10 10 9 9 8 7 6 6 6 6 6 6 6 5 5 5 5 5 5 5 5 4 4 4 4 4 4 4 4 4 4 3 3 2
11 11 9 9 11 10 10 10 11 10 10 9 9 8 7 7 7 6 6 6 6 6 6 6 5 5 5 5 5 5 5 5 4 4 4 4 4 4 4 4 4 3 3 2

GEFSCGP_850_meantemp_048.txt.gz
Temperature
15 13 13 14 14 16 17 18 18 18 19 20 19 19 18 19 19 20 21 21 22 22 22 22 22 22 22 22 22 22 21 21 20 20 20 19 19 18 18 18 18 17 17 17
14 15 15 16 16 16 17 18 18 18 19 20 19 18 17 16 17 18 19 19 20 20 21 21 21 21 21 22 21 21 21 21 20 20 20 19 19 18 18 17 17 17 17 17
16 16 17 17 17 17 17 18 18 19 18 19 19 17 17 17 17 16 16 17 17 18 19 20 21 21 21 21 21 21 21 20 20 20 19 19 18 17 17 16 16 16 16 16
16 16 17 17 17 17 17 18 18 19 18 17 18 17 17 16 16 16 15 15 15 16 17 17 19 19 20 20 21 20 20 20 20 19 19 19 18 17 17 16 16 16 15 15
16 17 17 17 17 17 17 18 19 19 18 17 17 16 16 16 16 16 15 14 15 15 16 16 17 17 18 19 19 20 19 19 19 18 18 18 18 17 17 16 15 15 14 14
16 17 18 17 18 18 18 18 17 14 15 17 17 16 16 16 16 15 15 14 14 14 15 15 16 16 17 18 18 18 18 18 18 17 17 17 17 16 16 15 15 14 14 13
16 17 17 18 19 19 18 16 15 16 15 16 16 16 16 15 15 14 14 13 13 14 14 15 15 15 16 16 17 17 17 17 16 16 16 16 16 15 15 14 14 13 13 13
16 16 18 18 18 17 16 16 15 16 16 15 15 16 15 15 14 13 13 13 13 13 13 14 14 14 15 15 15 15 16 15 15 15 15 15 15 14 14 13 13 12 12 11
16 16 18 18 18 17 17 15 15 15 16 15 15 16 15 14 14 13 12 12 12 12 13 13 13 14 14 14 14 14 14 14 14 14 14 14 13 13 13 12 12 11 11 10
16 16 17 17 17 17 16 15 13 14 15 15 15 16 15 14 14 13 12 12 12 12 12 12 12 13 13 13 13 13 13 13 13 13 13 12 12 12 11 11 10 10 9 9
15 15 16 16 15 15 16 15 13 12 14 14 14 14 15 14 14 13 12 11 11 11 11 11 11 12 12 12 12 12 12 12 12 12 11 11 11 10 10 9 9 8 8 7
14 13 14 16 16 15 15 15 13 14 14 13 13 14 13 13 13 12 11 11 11 11 11 10 11 11 11 11 11 11 11 11 10 10 10 10 9 9 9 8 8 7 7 6
14 13 14 15 15 14 14 14 13 12 11 12 13 14 13 12 12 11 11 11 10 10 10 10 10 10 10 10 9 9 9 9 9 9 9 8 8 7 7 7 6 6 6 6
13 12 13 14 14 14 14 14 14 13 12 13 13 13 13 12 11 10 10 10 10 10 10 9 9 9 9 9 8 8 8 8 8 8 8 7 7 6 6 6 6 6 5 5
12 12 13 13 14 14 13 13 13 13 13 13 13 13 12 12 11 10 10 9 9 9 9 9 8 8 8 8 8 8 7 7 7 7 7 6 6 6 6 5 5 5 5 5
11 12 13 13 13 13 13 12 13 13 13 13 13 12 11 10 10 10 9 9 9 8 8 8 8 8 8 7 7 7 7 7 6 6 6 6 5 5 5 5 5 4 4 4
10 11 11 12 13 13 11 11 12 12 11 12 12 11 10 10 9 9 9 9 8 8 8 8 7 7 7 7 7 6 6 6 6 6 5 5 5 5 5 4 4 4 4 3
10 9 8 10 12 12 12 12 12 11 11 11 11 10 10 9 8 9 9 8 8 8 7 7 7 7 7 6 6 6 6 6 5 5 5 5 4 4 4 4 4 3 3 3
10 10 9 9 10 11 12 12 12 11 10 10 10 9 8 8 8 8 8 8 8 7 7 7 7 7 6 6 6 6 5 5 5 5 4 4 4 4 4 3 3 3 3 3
9 9 9 9 11 11 12 12 12 11 10 10 10 9 9 9 8 7 7 7 7 7 7 6 6 6 6 6 5 5 5 5 5 4 4 4 4 4 3 3 3 3 3 3
10 9 9 9 10 10 11 11 12 11 10 9 9 9 9 8 8 7 7 7 7 6 6 6 6 6 5 5 5 5 5 4 4 4 4 4 4 3 3 3 3 3 3 3
10 10 9 8 10 10 11 11 10 9 9 9 9 9 8 7 7 7 7 6 6 6 6 6 6 5 5 5 5 5 5 4 4 4 4 4 4 3 3 3 3 3 3 3
9 9 8 8 9 9 9 9 10 10 10 9 9 8 8 7 6 6 6 6 6 6 5 5 5 5 5 5 5 5 4 4 4 4 4 4 4 4 4 4 3 3 3 3
10 8 8 8 9 9 9 10 10 10 10 10 9 8 8 7 6 6 6 6 6 5 5 5 5 5 5 4 4 4 4 4 4 4 4 4 4 4 4 4 3 3 3 3
10 8 8 8 9 9 9 10 10 10 10 9 8 8 7 7 6 6 6 6 5 5 5 5 5 5 5 4 4 4 4 4 4 4 4 4 4 4 4 4 4 3 3 2
8 8 8 9 9 9 9 10 10 10 9 9 8 7 7 7 6 6 6 5 5 5 5 5 5 5 5 5 4 4 4 4 4 4 4 4 4 4 4 4 3 3 3 2